owner,sensor,date,latitude,longitude,vertical_datum,sea_water_temperature,qcFlag
Anadarko,ioos:station:wmo:42370:2,2023-03-01T00:01:00Z,27.3215,-90.5355,18.3,30.4,11111222
Anadarko,ioos:station:wmo:42370:2,2023-03-01T00:21:00Z,27.3215,-90.5355,18.3,30.8,11111222
Anadarko,ioos:station:wmo:42370:2,2023-03-01T00:41:00Z,27.3215,-90.5355,18.3,30.9,11111222
Anadarko,ioos:station:wmo:42370:2,2023-03-01T01:01:00Z,27.3215,-90.5355,18.3,30.2,11111222
Anadarko,ioos:station:wmo:42370:2,2023-03-01T01:21:00Z,27.3215,-90.5355,18.3,30.0,11111222
Anadarko,ioos:station:wmo:42370:2,2023-03-01T01:41:00Z,27.3215,-90.5355,18.3,29.7,11111222
Anadarko,ioos:station:wmo:42370:2,2023-03-01T02:01:00Z,27.3215,-90.5355,18.3,29.3,11111222
Anadarko,ioos:station:wmo:42370:2,2023-03-01T02:21:00Z,27.3215,-90.5355,18.3,29.8,11111222
Anadarko,ioos:station:wmo:42370:2,2023-03-01T02:41:00Z,27.3215,-90.5355,18.3,29.8,11111222
Anadarko,ioos:station:wmo:42370:2,2023-03-01T03:02:00Z,27.3215,-90.5355,18.3,29.1,11111222
Anadarko,ioos:station:wmo:42370:2,2023-03-01T03:22:00Z,27.3215,-90.5355,18.3,30.2,11111222
Anadarko,ioos:station:wmo:42370:2,2023-03-01T03:41:00Z,27.3215,-90.5355,18.3,29.9,11111222
Anadarko,ioos:station:wmo:42370:2,2023-03-01T04:01:00Z,27.3215,-90.5355,18.3,30.2,11111222
Anadarko,ioos:station:wmo:42370:2,2023-03-01T04:21:00Z,27.3215,-90.5355,18.3,29.8,11111222
Anadarko,ioos:station:wmo:42370:2,2023-03-01T04:41:00Z,27.3215,-90.5355,18.3,29.4,11111222
Anadarko,ioos:station:wmo:42370:2,2023-03-01T05:01:00Z,27.3215,-90.5355,18.3,30.7,11111222
Anadarko,ioos:station:wmo:42370:2,2023-03-01T05:21:00Z,27.3215,-90.5355,18.3,30.6,11111222
Anadarko,ioos:station:wmo:42370:2,2023-03-01T05:41:00Z,27.3215,-90.5355,18.3,29.9,11111222
Anadarko,ioos:station:wmo:42370:2,2023-03-01T06:01:00Z,27.3215,-90.5355,18.3,29.9,11111222
Anadarko,ioos:station:wmo:42370:2,2023-03-01T06:21:00Z,27.3215,-90.5355,18.3,29.9,11111222
Anadarko,ioos:station:wmo:42370:2,2023-03-01T06:41:00Z,27.3215,-90.5355,18.3,30.1,11111222
Anadarko,ioos:station:wmo:42370:2,2023-03-01T07:01:00Z,27.3215,-90.5355,18.3,29.0,11111222
Anadarko,ioos:station:wmo:42370:2,2023-03-01T07:22:00Z,27.3215,-90.5355,18.3,29.6,11111222
Anadarko,ioos:station:wmo:42370:2,2023-03-01T07:42:00Z,27.3215,-90.5355,18.3,29.4,11111222
Anadarko,ioos:station:wmo:42370:2,2023-03-01T08:01:00Z,27.3215,-90.5355,18.3,29.1,11111222
Anadarko,ioos:station:wmo:42370:2,2023-03-01T08:21:00Z,27.3215,-90.5355,18.3,28.7,11111222
Anadarko,ioos:station:wmo:42370:2,2023-03-01T08:41:00Z,27.3215,-90.5355,18.3,29.4,11111222
Anadarko,ioos:station:wmo:42370:2,2023-03-01T09:01:00Z,27.3215,-90.5355,18.3,28.8,11111222
Anadarko,ioos:station:wmo:42370:2,2023-03-01T09:21:00Z,27.3215,-90.5355,18.3,31.3,11111222
Anadarko,ioos:station:wmo:42370:2,2023-03-01T09:41:00Z,27.3215,-90.5355,18.3,29.4,11111222
Anadarko,ioos:station:wmo:42370:2,2023-03-01T10:01:00Z,27.3215,-90.5355,18.3,29.9,11111222
Anadarko,ioos:station:wmo:42370:2,2023-03-01T10:21:00Z,27.3215,-90.5355,18.3,29.4,11111222
Anadarko,ioos:station:wmo:42370:2,2023-03-01T10:41:00Z,27.3215,-90.5355,18.3,29.4,11111222
Anadarko,ioos:station:wmo:42370:2,2023-03-01T11:01:00Z,27.3215,-90.5355,18.3,29.2,11111222
Anadarko,ioos:station:wmo:42370:2,2023-03-01T11:21:00Z,27.3215,-90.5355,18.3,29.0,11111222
Anadarko,ioos:station:wmo:42370:2,2023-03-01T11:42:00Z,27.3215,-90.5355,18.3,29.1,11111222
Anadarko,ioos:station:wmo:42370:2,2023-03-01T12:02:00Z,27.3215,-90.5355,18.3,29.6,11111222
Anadarko,ioos:station:wmo:42370:2,2023-03-01T12:21:00Z,27.3215,-90.5355,18.3,29.0,11111222
Anadarko,ioos:station:wmo:42370:2,2023-03-01T12:41:00Z,27.3215,-90.5355,18.3,29.0,11111222
Anadarko,ioos:station:wmo:42370:2,2023-03-01T13:01:00Z,27.3215,-90.5355,18.3,29.0,11111222
Anadarko,ioos:station:wmo:42370:2,2023-03-01T13:21:00Z,27.3215,-90.5355,18.3,28.4,11111222
Anadarko,ioos:station:wmo:42370:2,2023-03-01T13:41:00Z,27.3215,-90.5355,18.3,29.0,11111222
Anadarko,ioos:station:wmo:42370:2,2023-03-01T14:01:00Z,27.3215,-90.5355,18.3,28.8,11111222
Anadarko,ioos:station:wmo:42370:2,2023-03-01T14:21:00Z,27.3215,-90.5355,18.3,29.4,11111222
Anadarko,ioos:station:wmo:42370:2,2023-03-01T14:41:00Z,27.3215,-90.5355,18.3,29.1,11111222
Anadarko,ioos:station:wmo:42370:2,2023-03-01T15:01:00Z,27.3215,-90.5355,18.3,28.6,11111222
Anadarko,ioos:station:wmo:42370:2,2023-03-01T15:21:00Z,27.3215,-90.5355,18.3,29.1,11111222
Anadarko,ioos:station:wmo:42370:2,2023-03-01T15:41:00Z,27.3215,-90.5355,18.3,29.2,11111222
Anadarko,ioos:station:wmo:42370:2,2023-03-01T16:01:00Z,27.3215,-90.5355,18.3,29.3,11111222
Anadarko,ioos:station:wmo:42370:2,2023-03-01T16:22:00Z,27.3215,-90.5355,18.3,29.2,11111222
Anadarko,ioos:station:wmo:42370:2,2023-03-01T16:41:00Z,27.3215,-90.5355,18.3,29.0,11111222
Anadarko,ioos:station:wmo:42370:2,2023-03-01T17:01:00Z,27.3215,-90.5355,18.3,28.6,11111222
Anadarko,ioos:station:wmo:42370:2,2023-03-01T17:21:00Z,27.3215,-90.5355,18.3,29.0,11111222
Anadarko,ioos:station:wmo:42370:2,2023-03-01T17:41:00Z,27.3215,-90.5355,18.3,28.9,11111222
Anadarko,ioos:station:wmo:42370:2,2023-03-01T18:01:00Z,27.3215,-90.5355,18.3,29.3,11111222
Anadarko,ioos:station:wmo:42370:2,2023-03-01T18:21:00Z,27.3215,-90.5355,18.3,28.7,11111222
Anadarko,ioos:station:wmo:42370:2,2023-03-01T18:41:00Z,27.3215,-90.5355,18.3,28.7,11111222
Anadarko,ioos:station:wmo:42370:2,2023-03-01T19:01:00Z,27.3215,-90.5355,18.3,28.6,11111222
Anadarko,ioos:station:wmo:42370:2,2023-03-01T19:21:00Z,27.3215,-90.5355,18.3,28.6,11111222
Anadarko,ioos:station:wmo:42370:2,2023-03-01T19:41:00Z,27.3215,-90.5355,18.3,28.3,11111222
Anadarko,ioos:station:wmo:42370:2,2023-03-01T20:01:00Z,27.3215,-90.5355,18.3,28.4,11111222
Anadarko,ioos:station:wmo:42370:2,2023-03-01T20:21:00Z,27.3215,-90.5355,18.3,28.3,11111222
Anadarko,ioos:station:wmo:42370:2,2023-03-01T20:42:00Z,27.3215,-90.5355,18.3,28.9,11111222
Anadarko,ioos:station:wmo:42370:2,2023-03-01T21:01:00Z,27.3215,-90.5355,18.3,28.7,11111222
Anadarko,ioos:station:wmo:42370:2,2023-03-01T21:21:00Z,27.3215,-90.5355,18.3,28.8,11111222
Anadarko,ioos:station:wmo:42370:2,2023-03-01T21:41:00Z,27.3215,-90.5355,18.3,29.1,11111222
Anadarko,ioos:station:wmo:42370:2,2023-03-01T22:01:00Z,27.3215,-90.5355,18.3,28.7,11111222
Anadarko,ioos:station:wmo:42370:2,2023-03-01T22:21:00Z,27.3215,-90.5355,18.3,28.9,11111222
Anadarko,ioos:station:wmo:42370:2,2023-03-01T22:41:00Z,27.3215,-90.5355,18.3,28.9,11111222
Anadarko,ioos:station:wmo:42370:2,2023-03-01T23:01:00Z,27.3215,-90.5355,18.3,28.9,11111222
Anadarko,ioos:station:wmo:42370:2,2023-03-01T23:21:00Z,27.3215,-90.5355,18.3,28.5,11111222
Anadarko,ioos:station:wmo:42370:2,2023-03-01T23:41:00Z,27.3215,-90.5355,18.3,28.7,11111222
Anadarko,ioos:station:wmo:42370:2,2023-03-02T00:01:00Z,27.3215,-90.5355,18.3,28.5,11111222
Anadarko,ioos:station:wmo:42370:2,2023-03-02T00:21:00Z,27.3215,-90.5355,18.3,28.4,11111222
Anadarko,ioos:station:wmo:42370:2,2023-03-02T00:41:00Z,27.3215,-90.5355,18.3,28.5,11111222
Anadarko,ioos:station:wmo:42370:2,2023-03-02T01:02:00Z,27.3215,-90.5355,18.3,28.7,11111222
Anadarko,ioos:station:wmo:42370:2,2023-03-02T01:21:00Z,27.3215,-90.5355,18.3,28.6,11111222
Anadarko,ioos:station:wmo:42370:2,2023-03-02T01:41:00Z,27.3215,-90.5355,18.3,28.4,11111222
Anadarko,ioos:station:wmo:42370:2,2023-03-02T02:01:00Z,27.3215,-90.5355,18.3,28.2,11111222
Anadarko,ioos:station:wmo:42370:2,2023-03-02T02:21:00Z,27.3215,-90.5355,18.3,28.6,11111222
Anadarko,ioos:station:wmo:42370:2,2023-03-02T02:41:00Z,27.3215,-90.5355,18.3,28.7,11111222
Anadarko,ioos:station:wmo:42370:2,2023-03-02T03:01:00Z,27.3215,-90.5355,18.3,29.0,11111222
Anadarko,ioos:station:wmo:42370:2,2023-03-02T03:21:00Z,27.3215,-90.5355,18.3,29.1,11111222
Anadarko,ioos:station:wmo:42370:2,2023-03-02T03:41:00Z,27.3215,-90.5355,18.3,29.9,11111222
Anadarko,ioos:station:wmo:42370:2,2023-03-02T04:01:00Z,27.3215,-90.5355,18.3,30.1,11111222
Anadarko,ioos:station:wmo:42370:2,2023-03-02T04:21:00Z,27.3215,-90.5355,18.3,29.2,11111222
Anadarko,ioos:station:wmo:42370:2,2023-03-02T04:41:00Z,27.3215,-90.5355,18.3,30.1,11111222
Anadarko,ioos:station:wmo:42370:2,2023-03-02T05:01:00Z,27.3215,-90.5355,18.3,28.8,11111222
Anadarko,ioos:station:wmo:42370:2,2023-03-02T05:21:00Z,27.3215,-90.5355,18.3,28.0,11111222
Anadarko,ioos:station:wmo:42370:2,2023-03-02T05:41:00Z,27.3215,-90.5355,18.3,29.6,11111222
Anadarko,ioos:station:wmo:42370:2,2023-03-02T06:01:00Z,27.3215,-90.5355,18.3,30.0,11111222
Anadarko,ioos:station:wmo:42370:2,2023-03-02T06:21:00Z,27.3215,-90.5355,18.3,29.4,11111222
Anadarko,ioos:station:wmo:42370:2,2023-03-02T06:41:00Z,27.3215,-90.5355,18.3,29.2,11111222
Anadarko,ioos:station:wmo:42370:2,2023-03-02T07:01:00Z,27.3215,-90.5355,18.3,27.7,11111222
Anadarko,ioos:station:wmo:42370:2,2023-03-02T07:21:00Z,27.3215,-90.5355,18.3,28.5,11111222
Anadarko,ioos:station:wmo:42370:2,2023-03-02T07:41:00Z,27.3215,-90.5355,18.3,28.9,11111222
Anadarko,ioos:station:wmo:42370:2,2023-03-02T08:01:00Z,27.3215,-90.5355,18.3,28.0,11111222
Anadarko,ioos:station:wmo:42370:2,2023-03-02T08:21:00Z,27.3215,-90.5355,18.3,28.5,11111222
Anadarko,ioos:station:wmo:42370:2,2023-03-02T08:41:00Z,27.3215,-90.5355,18.3,28.8,11111222
Anadarko,ioos:station:wmo:42370:2,2023-03-02T09:01:00Z,27.3215,-90.5355,18.3,28.1,11111222
Anadarko,ioos:station:wmo:42370:2,2023-03-02T09:21:00Z,27.3215,-90.5355,18.3,28.1,11111222
Anadarko,ioos:station:wmo:42370:2,2023-03-02T09:41:00Z,27.3215,-90.5355,18.3,28.3,11111222
Anadarko,ioos:station:wmo:42370:2,2023-03-02T10:01:00Z,27.3215,-90.5355,18.3,28.4,11111222
Anadarko,ioos:station:wmo:42370:2,2023-03-02T10:21:00Z,27.3215,-90.5355,18.3,28.3,11111222
Anadarko,ioos:station:wmo:42370:2,2023-03-02T10:41:00Z,27.3215,-90.5355,18.3,28.9,11111222
Anadarko,ioos:station:wmo:42370:2,2023-03-02T11:01:00Z,27.3215,-90.5355,18.3,28.3,11111222
Anadarko,ioos:station:wmo:42370:2,2023-03-02T11:21:00Z,27.3215,-90.5355,18.3,28.2,11111222
Anadarko,ioos:station:wmo:42370:2,2023-03-02T11:41:00Z,27.3215,-90.5355,18.3,28.1,11111222
Anadarko,ioos:station:wmo:42370:2,2023-03-02T12:01:00Z,27.3215,-90.5355,18.3,28.8,11111222
Anadarko,ioos:station:wmo:42370:2,2023-03-02T12:21:00Z,27.3215,-90.5355,18.3,28.7,11111222
Anadarko,ioos:station:wmo:42370:2,2023-03-02T12:41:00Z,27.3215,-90.5355,18.3,29.1,11111222
Anadarko,ioos:station:wmo:42370:2,2023-03-02T13:01:00Z,27.3215,-90.5355,18.3,29.1,11111222
Anadarko,ioos:station:wmo:42370:2,2023-03-02T13:21:00Z,27.3215,-90.5355,18.3,28.8,11111222
Anadarko,ioos:station:wmo:42370:2,2023-03-02T13:41:00Z,27.3215,-90.5355,18.3,28.8,11111222
Anadarko,ioos:station:wmo:42370:2,2023-03-02T14:01:00Z,27.3215,-90.5355,18.3,29.0,11111222
Anadarko,ioos:station:wmo:42370:2,2023-03-02T14:21:00Z,27.3215,-90.5355,18.3,29.0,11111222
Anadarko,ioos:station:wmo:42370:2,2023-03-02T14:41:00Z,27.3215,-90.5355,18.3,28.9,11111222
Anadarko,ioos:station:wmo:42370:2,2023-03-02T15:01:00Z,27.3215,-90.5355,18.3,28.6,11111222
Anadarko,ioos:station:wmo:42370:2,2023-03-02T15:21:00Z,27.3215,-90.5355,18.3,29.1,11111222
Anadarko,ioos:station:wmo:42370:2,2023-03-02T15:41:00Z,27.3215,-90.5355,18.3,29.3,11111222
Anadarko,ioos:station:wmo:42370:2,2023-03-02T16:01:00Z,27.3215,-90.5355,18.3,28.9,11111222
Anadarko,ioos:station:wmo:42370:2,2023-03-02T16:21:00Z,27.3215,-90.5355,18.3,28.3,11111222
Anadarko,ioos:station:wmo:42370:2,2023-03-02T16:41:00Z,27.3215,-90.5355,18.3,28.5,11111222
Anadarko,ioos:station:wmo:42370:2,2023-03-02T17:01:00Z,27.3215,-90.5355,18.3,28.4,11111222
Anadarko,ioos:station:wmo:42370:2,2023-03-02T17:21:00Z,27.3215,-90.5355,18.3,28.2,11111222
Anadarko,ioos:station:wmo:42370:2,2023-03-02T17:41:00Z,27.3215,-90.5355,18.3,28.1,11111222
Anadarko,ioos:station:wmo:42370:2,2023-03-02T18:01:00Z,27.3215,-90.5355,18.3,28.1,11111222
Anadarko,ioos:station:wmo:42370:2,2023-03-02T18:21:00Z,27.3215,-90.5355,18.3,28.3,11111222
Anadarko,ioos:station:wmo:42370:2,2023-03-02T18:41:00Z,27.3215,-90.5355,18.3,28.2,11111222
Anadarko,ioos:station:wmo:42370:2,2023-03-02T19:01:00Z,27.3215,-90.5355,18.3,28.3,11111222
Anadarko,ioos:station:wmo:42370:2,2023-03-02T19:21:00Z,27.3215,-90.5355,18.3,27.9,11111222
Anadarko,ioos:station:wmo:42370:2,2023-03-02T19:41:00Z,27.3215,-90.5355,18.3,28.5,11111222
Anadarko,ioos:station:wmo:42370:2,2023-03-02T20:01:00Z,27.3215,-90.5355,18.3,28.4,11111222
Anadarko,ioos:station:wmo:42370:2,2023-03-02T20:21:00Z,27.3215,-90.5355,18.3,28.6,11111222
Anadarko,ioos:station:wmo:42370:2,2023-03-02T20:41:00Z,27.3215,-90.5355,18.3,28.7,11111222
Anadarko,ioos:station:wmo:42370:2,2023-03-02T21:01:00Z,27.3215,-90.5355,18.3,28.8,11111222
Anadarko,ioos:station:wmo:42370:2,2023-03-02T21:21:00Z,27.3215,-90.5355,18.3,28.4,11111222
Anadarko,ioos:station:wmo:42370:2,2023-03-02T21:41:00Z,27.3215,-90.5355,18.3,28.4,11111222
Anadarko,ioos:station:wmo:42370:2,2023-03-02T22:01:00Z,27.3215,-90.5355,18.3,28.9,11111222
Anadarko,ioos:station:wmo:42370:2,2023-03-02T22:21:00Z,27.3215,-90.5355,18.3,28.7,11111222
Anadarko,ioos:station:wmo:42370:2,2023-03-02T22:41:00Z,27.3215,-90.5355,18.3,29.1,11111222
Anadarko,ioos:station:wmo:42370:2,2023-03-02T23:01:00Z,27.3215,-90.5355,18.3,28.9,11111222
Anadarko,ioos:station:wmo:42370:2,2023-03-02T23:21:00Z,27.3215,-90.5355,18.3,28.8,11111222
Anadarko,ioos:station:wmo:42370:2,2023-03-02T23:41:00Z,27.3215,-90.5355,18.3,29.0,11111222
Anadarko,ioos:station:wmo:42370:2,2023-03-03T00:01:00Z,27.3215,-90.5355,18.3,28.7,11111222
Anadarko,ioos:station:wmo:42370:2,2023-03-03T00:21:00Z,27.3215,-90.5355,18.3,28.9,11111222
Anadarko,ioos:station:wmo:42370:2,2023-03-03T00:41:00Z,27.3215,-90.5355,18.3,29.3,11111222
Anadarko,ioos:station:wmo:42370:2,2023-03-03T01:01:00Z,27.3215,-90.5355,18.3,29.5,11111222
Anadarko,ioos:station:wmo:42370:2,2023-03-03T01:21:00Z,27.3215,-90.5355,18.3,29.0,11111222
Anadarko,ioos:station:wmo:42370:2,2023-03-03T01:41:00Z,27.3215,-90.5355,18.3,29.1,11111222
Anadarko,ioos:station:wmo:42370:2,2023-03-03T02:01:00Z,27.3215,-90.5355,18.3,28.8,11111222
Anadarko,ioos:station:wmo:42370:2,2023-03-03T02:21:00Z,27.3215,-90.5355,18.3,29.1,11111222
Anadarko,ioos:station:wmo:42370:2,2023-03-03T02:41:00Z,27.3215,-90.5355,18.3,29.6,11111222
Anadarko,ioos:station:wmo:42370:2,2023-03-03T03:01:00Z,27.3215,-90.5355,18.3,29.5,11111222
Anadarko,ioos:station:wmo:42370:2,2023-03-03T03:21:00Z,27.3215,-90.5355,18.3,29.0,11111222
Anadarko,ioos:station:wmo:42370:2,2023-03-03T03:41:00Z,27.3215,-90.5355,18.3,28.6,11111222
Anadarko,ioos:station:wmo:42370:2,2023-03-03T04:01:00Z,27.3215,-90.5355,18.3,28.1,11111222
Anadarko,ioos:station:wmo:42370:2,2023-03-03T04:21:00Z,27.3215,-90.5355,18.3,28.1,11111222
Anadarko,ioos:station:wmo:42370:2,2023-03-03T04:41:00Z,27.3215,-90.5355,18.3,28.0,11111222
Anadarko,ioos:station:wmo:42370:2,2023-03-03T05:01:00Z,27.3215,-90.5355,18.3,28.0,11111222
Anadarko,ioos:station:wmo:42370:2,2023-03-03T05:21:00Z,27.3215,-90.5355,18.3,28.4,11111222
Anadarko,ioos:station:wmo:42370:2,2023-03-03T05:41:00Z,27.3215,-90.5355,18.3,28.0,11111222
Anadarko,ioos:station:wmo:42370:2,2023-03-03T06:01:00Z,27.3215,-90.5355,18.3,28.2,11111222
Anadarko,ioos:station:wmo:42370:2,2023-03-03T06:21:00Z,27.3215,-90.5355,18.3,28.5,11111222
Anadarko,ioos:station:wmo:42370:2,2023-03-03T06:41:00Z,27.3215,-90.5355,18.3,28.3,11111222
Anadarko,ioos:station:wmo:42370:2,2023-03-03T07:01:00Z,27.3215,-90.5355,18.3,28.4,11111222
Anadarko,ioos:station:wmo:42370:2,2023-03-03T07:21:00Z,27.3215,-90.5355,18.3,28.2,11111222
Anadarko,ioos:station:wmo:42370:2,2023-03-03T07:41:00Z,27.3215,-90.5355,18.3,28.2,11111222
Anadarko,ioos:station:wmo:42370:2,2023-03-03T08:01:00Z,27.3215,-90.5355,18.3,28.1,11111222
Anadarko,ioos:station:wmo:42370:2,2023-03-03T08:21:00Z,27.3215,-90.5355,18.3,28.4,11111222
Anadarko,ioos:station:wmo:42370:2,2023-03-03T08:41:00Z,27.3215,-90.5355,18.3,28.1,11111222
Anadarko,ioos:station:wmo:42370:2,2023-03-03T09:01:00Z,27.3215,-90.5355,18.3,28.7,11111222
Anadarko,ioos:station:wmo:42370:2,2023-03-03T09:21:00Z,27.3215,-90.5355,18.3,29.3,11111222
Anadarko,ioos:station:wmo:42370:2,2023-03-03T09:41:00Z,27.3215,-90.5355,18.3,29.4,11111222
Anadarko,ioos:station:wmo:42370:2,2023-03-03T10:01:00Z,27.3215,-90.5355,18.3,28.7,11111222
Anadarko,ioos:station:wmo:42370:2,2023-03-03T10:21:00Z,27.3215,-90.5355,18.3,29.2,11111222
Anadarko,ioos:station:wmo:42370:2,2023-03-03T10:41:00Z,27.3215,-90.5355,18.3,29.6,11111222
Anadarko,ioos:station:wmo:42370:2,2023-03-03T11:01:00Z,27.3215,-90.5355,18.3,28.8,11111222
Anadarko,ioos:station:wmo:42370:2,2023-03-03T11:21:00Z,27.3215,-90.5355,18.3,28.5,11111222
Anadarko,ioos:station:wmo:42370:2,2023-03-03T11:41:00Z,27.3215,-90.5355,18.3,30.4,11111222
Anadarko,ioos:station:wmo:42370:2,2023-03-03T12:01:00Z,27.3215,-90.5355,18.3,29.8,11111222
Anadarko,ioos:station:wmo:42370:2,2023-03-03T12:21:00Z,27.3215,-90.5355,18.3,29.8,11111222
Anadarko,ioos:station:wmo:42370:2,2023-03-03T12:41:00Z,27.3215,-90.5355,18.3,29.3,11111222
Anadarko,ioos:station:wmo:42370:2,2023-03-03T13:01:00Z,27.3215,-90.5355,18.3,28.9,11111222
Anadarko,ioos:station:wmo:42370:2,2023-03-03T13:21:00Z,27.3215,-90.5355,18.3,28.9,11111222
Anadarko,ioos:station:wmo:42370:2,2023-03-03T13:41:00Z,27.3215,-90.5355,18.3,28.7,11111222
Anadarko,ioos:station:wmo:42370:2,2023-03-03T14:01:00Z,27.3215,-90.5355,18.3,28.8,11111222
Anadarko,ioos:station:wmo:42370:2,2023-03-03T14:21:00Z,27.3215,-90.5355,18.3,28.6,11111222
Anadarko,ioos:station:wmo:42370:2,2023-03-03T14:41:00Z,27.3215,-90.5355,18.3,28.7,11111222
Anadarko,ioos:station:wmo:42370:2,2023-03-03T15:01:00Z,27.3215,-90.5355,18.3,28.8,11111222
Anadarko,ioos:station:wmo:42370:2,2023-03-03T15:21:00Z,27.3215,-90.5355,18.3,28.8,11111222
Anadarko,ioos:station:wmo:42370:2,2023-03-03T15:41:00Z,27.3215,-90.5355,18.3,28.6,11111222
Anadarko,ioos:station:wmo:42370:2,2023-03-03T16:01:00Z,27.3215,-90.5355,18.3,28.9,11111222
Anadarko,ioos:station:wmo:42370:2,2023-03-03T16:21:00Z,27.3215,-90.5355,18.3,29.0,11111222
Anadarko,ioos:station:wmo:42370:2,2023-03-03T16:41:00Z,27.3215,-90.5355,18.3,29.0,11111222
Anadarko,ioos:station:wmo:42370:2,2023-03-03T17:01:00Z,27.3215,-90.5355,18.3,28.8,11111222
Anadarko,ioos:station:wmo:42370:2,2023-03-03T17:21:00Z,27.3215,-90.5355,18.3,28.5,11111222
Anadarko,ioos:station:wmo:42370:2,2023-03-03T17:41:00Z,27.3215,-90.5355,18.3,28.8,11111222
Anadarko,ioos:station:wmo:42370:2,2023-03-03T18:01:00Z,27.3215,-90.5355,18.3,28.8,11111222
Anadarko,ioos:station:wmo:42370:2,2023-03-03T18:21:00Z,27.3215,-90.5355,18.3,28.3,11111222
Anadarko,ioos:station:wmo:42370:2,2023-03-03T18:41:00Z,27.3215,-90.5355,18.3,28.7,11111222
Anadarko,ioos:station:wmo:42370:2,2023-03-03T19:01:00Z,27.3215,-90.5355,18.3,28.6,11111222
Anadarko,ioos:station:wmo:42370:2,2023-03-03T19:21:00Z,27.3215,-90.5355,18.3,28.7,11111222
Anadarko,ioos:station:wmo:42370:2,2023-03-03T19:41:00Z,27.3215,-90.5355,18.3,28.3,11111222
Anadarko,ioos:station:wmo:42370:2,2023-03-03T20:01:00Z,27.3215,-90.5355,18.3,29.6,11111222
Anadarko,ioos:station:wmo:42370:2,2023-03-03T20:21:00Z,27.3215,-90.5355,18.3,29.3,11111222
Anadarko,ioos:station:wmo:42370:2,2023-03-03T20:41:00Z,27.3215,-90.5355,18.3,34.6,11111222
Anadarko,ioos:station:wmo:42370:2,2023-03-03T21:01:00Z,27.3215,-90.5355,18.3,32.1,11111222
Anadarko,ioos:station:wmo:42370:2,2023-03-03T21:21:00Z,27.3215,-90.5355,18.3,30.4,11111222
Anadarko,ioos:station:wmo:42370:2,2023-03-03T21:41:00Z,27.3215,-90.5355,18.3,30.5,11111222
Anadarko,ioos:station:wmo:42370:2,2023-03-03T22:01:00Z,27.3215,-90.5355,18.3,30.2,11111222
Anadarko,ioos:station:wmo:42370:2,2023-03-03T22:21:00Z,27.3215,-90.5355,18.3,30.9,11111222
Anadarko,ioos:station:wmo:42370:2,2023-03-03T22:41:00Z,27.3215,-90.5355,18.3,30.4,11111222
Anadarko,ioos:station:wmo:42370:2,2023-03-03T23:01:00Z,27.3215,-90.5355,18.3,30.1,11111222
Anadarko,ioos:station:wmo:42370:2,2023-03-03T23:21:00Z,27.3215,-90.5355,18.3,30.1,11111222
Anadarko,ioos:station:wmo:42370:2,2023-03-03T23:41:00Z,27.3215,-90.5355,18.3,30.0,11111222
Anadarko,ioos:station:wmo:42370:2,2023-03-04T00:01:00Z,27.3215,-90.5355,18.3,29.9,11111222
Anadarko,ioos:station:wmo:42370:2,2023-03-04T00:21:00Z,27.3215,-90.5355,18.3,29.9,11111222
Anadarko,ioos:station:wmo:42370:2,2023-03-04T00:41:00Z,27.3215,-90.5355,18.3,29.3,11111222
Anadarko,ioos:station:wmo:42370:2,2023-03-04T01:01:00Z,27.3215,-90.5355,18.3,28.8,11111222
Anadarko,ioos:station:wmo:42370:2,2023-03-04T01:21:00Z,27.3215,-90.5355,18.3,28.5,11111222
Anadarko,ioos:station:wmo:42370:2,2023-03-04T01:41:00Z,27.3215,-90.5355,18.3,28.6,11111222
Anadarko,ioos:station:wmo:42370:2,2023-03-04T02:01:00Z,27.3215,-90.5355,18.3,28.8,11111222
Anadarko,ioos:station:wmo:42370:2,2023-03-04T02:21:00Z,27.3215,-90.5355,18.3,28.8,11111222
Anadarko,ioos:station:wmo:42370:2,2023-03-04T02:41:00Z,27.3215,-90.5355,18.3,28.4,11111222
Anadarko,ioos:station:wmo:42370:2,2023-03-04T03:01:00Z,27.3215,-90.5355,18.3,28.4,11111222
Anadarko,ioos:station:wmo:42370:2,2023-03-04T03:21:00Z,27.3215,-90.5355,18.3,28.6,11111222
Anadarko,ioos:station:wmo:42370:2,2023-03-04T03:41:00Z,27.3215,-90.5355,18.3,29.4,11111222
Anadarko,ioos:station:wmo:42370:2,2023-03-04T04:01:00Z,27.3215,-90.5355,18.3,28.6,11111222
Anadarko,ioos:station:wmo:42370:2,2023-03-04T04:21:00Z,27.3215,-90.5355,18.3,28.4,11111222
Anadarko,ioos:station:wmo:42370:2,2023-03-04T04:41:00Z,27.3215,-90.5355,18.3,27.4,11111222
Anadarko,ioos:station:wmo:42370:2,2023-03-04T05:01:00Z,27.3215,-90.5355,18.3,28.2,11111222
Anadarko,ioos:station:wmo:42370:2,2023-03-04T05:21:00Z,27.3215,-90.5355,18.3,28.0,11111222
Anadarko,ioos:station:wmo:42370:2,2023-03-04T05:41:00Z,27.3215,-90.5355,18.3,28.5,11111222
Anadarko,ioos:station:wmo:42370:2,2023-03-04T06:01:00Z,27.3215,-90.5355,18.3,28.4,11111222
Anadarko,ioos:station:wmo:42370:2,2023-03-04T06:21:00Z,27.3215,-90.5355,18.3,29.1,11111222
Anadarko,ioos:station:wmo:42370:2,2023-03-04T06:41:00Z,27.3215,-90.5355,18.3,28.7,11111222
Anadarko,ioos:station:wmo:42370:2,2023-03-04T07:01:00Z,27.3215,-90.5355,18.3,28.2,11111222
Anadarko,ioos:station:wmo:42370:2,2023-03-04T07:21:00Z,27.3215,-90.5355,18.3,28.7,11111222
Anadarko,ioos:station:wmo:42370:2,2023-03-04T07:41:00Z,27.3215,-90.5355,18.3,28.6,11111222
Anadarko,ioos:station:wmo:42370:2,2023-03-04T08:01:00Z,27.3215,-90.5355,18.3,29.1,11111222
Anadarko,ioos:station:wmo:42370:2,2023-03-04T08:21:00Z,27.3215,-90.5355,18.3,29.1,11111222
Anadarko,ioos:station:wmo:42370:2,2023-03-04T08:41:00Z,27.3215,-90.5355,18.3,29.4,11111222
Anadarko,ioos:station:wmo:42370:2,2023-03-04T09:01:00Z,27.3215,-90.5355,18.3,29.1,11111222
Anadarko,ioos:station:wmo:42370:2,2023-03-04T09:21:00Z,27.3215,-90.5355,18.3,29.0,11111222
Anadarko,ioos:station:wmo:42370:2,2023-03-04T09:41:00Z,27.3215,-90.5355,18.3,28.7,11111222
Anadarko,ioos:station:wmo:42370:2,2023-03-04T10:01:00Z,27.3215,-90.5355,18.3,29.1,11111222
Anadarko,ioos:station:wmo:42370:2,2023-03-04T10:21:00Z,27.3215,-90.5355,18.3,29.6,11111222
Anadarko,ioos:station:wmo:42370:2,2023-03-04T10:41:00Z,27.3215,-90.5355,18.3,29.4,11111222
Anadarko,ioos:station:wmo:42370:2,2023-03-04T11:01:00Z,27.3215,-90.5355,18.3,29.4,11111222
Anadarko,ioos:station:wmo:42370:2,2023-03-04T11:21:00Z,27.3215,-90.5355,18.3,29.9,11111222
Anadarko,ioos:station:wmo:42370:2,2023-03-04T11:41:00Z,27.3215,-90.5355,18.3,29.2,11111222
Anadarko,ioos:station:wmo:42370:2,2023-03-04T12:01:00Z,27.3215,-90.5355,18.3,29.8,11111222
Anadarko,ioos:station:wmo:42370:2,2023-03-04T12:21:00Z,27.3215,-90.5355,18.3,29.8,11111222
Anadarko,ioos:station:wmo:42370:2,2023-03-04T12:41:00Z,27.3215,-90.5355,18.3,29.9,11111222
Anadarko,ioos:station:wmo:42370:2,2023-03-04T13:01:00Z,27.3215,-90.5355,18.3,30.1,11111222
Anadarko,ioos:station:wmo:42370:2,2023-03-04T13:21:00Z,27.3215,-90.5355,18.3,30.0,11111222
Anadarko,ioos:station:wmo:42370:2,2023-03-04T13:41:00Z,27.3215,-90.5355,18.3,30.2,11111222
Anadarko,ioos:station:wmo:42370:2,2023-03-04T14:01:00Z,27.3215,-90.5355,18.3,29.8,11111222